This is the latest recevied weather packets stored in our database for station/object KC5TIL. If no packets are shown the sender has not sent any weather packets the latest 10 day(s).
| Time | Temp. | Humidity | Pressure | Rain* | Wind** | Luminosity | Snow |
|---|---|---|---|---|---|---|---|
| 1787890165 | 32.78° C | 51% | 1016.7 hPa | 0 mm | - | 0 W/m² | - |
| 1787889865 | 32.78° C | 51% | 1016.5 hPa | 0 mm | - | 0 W/m² | - |
| 1787889560 | 32.78° C | 49% | 1016.6 hPa | 0 mm | - | 0 W/m² | - |
| 1787889255 | 32.78° C | 51% | 1016.4 hPa | 0 mm | - | 0 W/m² | - |
| 1787888954 | 32.78° C | 49% | 1016.4 hPa | 0 mm | - | 0 W/m² | - |
| 1787888649 | 32.78° C | 50% | 1016.3 hPa | 0 mm | - | 0 W/m² | - |
| 1787888344 | 32.78° C | 51% | 1016.2 hPa | 0 mm | - | 0 W/m² | - |
| 1787888040 | 32.78° C | 49% | 1016.1 hPa | 0 mm | - | 0 W/m² | - |
| 1787887735 | 33.33° C | 48% | 1016 hPa | 0 mm | - | 0 W/m² | - |
| 1787887430 | 33.33° C | 50% | 1015.9 hPa | 0 mm | - | 0 W/m² | - |
| 1787887125 | 33.33° C | 51% | 1015.8 hPa | 0 mm | - | 0 W/m² | - |
| 1787886815 | 33.33° C | 49% | 1015.9 hPa | 0 mm | - | 0 W/m² | - |
| 1787886515 | 33.89° C | 50% | 1016 hPa | 0 mm | - | 0 W/m² | - |
| 1787886210 | 33.89° C | 47% | 1015.8 hPa | 0 mm | - | 0 W/m² | - |
| 1787885909 | 33.33° C | 51% | 1015.6 hPa | 0 mm | - | 0 W/m² | - |
| 1787885608 | 33.89° C | 51% | 1015.6 hPa | 0 mm | - | 0 W/m² | - |
| 1787885307 | 33.89° C | 49% | 1015.5 hPa | 0 mm | - | 0 W/m² | - |
| 1787885007 | 33.89° C | 46% | 1015.4 hPa | 0 mm | - | 0 W/m² | - |
| 1787884702 | 33.89° C | 48% | 1015.6 hPa | 0 mm | - | 0 W/m² | - |
| 1787884398 | 33.89° C | 47% | 1015.6 hPa | 0 mm | - | 0 W/m² | - |
| 1787884092 | 33.89° C | 47% | 1015.5 hPa | 0 mm | - | 0 W/m² | - |
| 1787883782 | 33.89° C | 49% | 1015.3 hPa | 0 mm | - | 0 W/m² | - |
| 1787883478 | 33.89° C | 50% | 1015.3 hPa | 0 mm | - | 0 W/m² | - |
| 1787883177 | 33.89° C | 50% | 1015.3 hPa | 0 mm | - | 0 W/m² | - |
| 1787882872 | 33.89° C | 53% | 1015.2 hPa | 0 mm | - | 0 W/m² | - |
* Rain latest hour (hover to see other rain measurements)
** Current wind speed in m/s (hover to see current wind gust speed)